Flag for Switzerland Weather past 2 weeks in Sion, Valais, Switzerland

Now
92 °F

Hot.


Feels Like: 91 °F
Forecast: 70 / 96 °F
Wind: 16 mph from West

Location: Sion

Current Time: Jul 5, 2015 at 8:34:41 PM

Latest Report: Jul 5, 2015 at 7:00 PM


Visibility: N/A

Pressure: 29.86 "Hg (28.20 "Hg at 514m altitude)

Humidity: 31%

Dew point: 57 °F

Location of SionLocation

Historic Weather in Sion — Graph

°F

Sion temperature yesterday

Maximum temperature yesterday: 97 °F (at 4:00 PM)
Minimum temperature yesterday: 70 °F (at 6:00 AM)
Average temperature yesterday: 84 °F

Past Weeks' High & Low Weather Summary

 TemperatureHumidityPressure
High98 °F (Jul 5, 5:00 PM)90% (Jun 23, 6:00 AM)30.26 "Hg (Jun 23, 6:00 AM)
Low49 °F (Jun 24, 6:00 AM)26% (Jun 29, 6:00 PM)29.74 "Hg (Jun 23, 12:00 AM)
Average73 °F51%30.05 "Hg
* Reported Jun 20 7:00 PM — Jul 5 7:00 PM, Sion, Weather by CustomWeather, © 2015

Note: Actual official high and low records may vary slightly from our data, if they occured in-between our weather recording intervals... More about our weather records

Advertising

Sion weather history for previous 24 hours

 ConditionsComfort  
Time TempWeatherWind HumidityBarometerVisibility
7:00 PM
Sun, Jul 5
92 °FHot.16 mph31%29.86 "HgN/A
6:00 PM96 °FExtremely hot.14 mph27%29.83 "HgN/A
5:00 PM98 °FScattered clouds.6 mph26%29.83 "Hg19 mi
4:00 PM97 °FExtremely hot.3 mph29%29.85 "HgN/A
3:00 PM96 °FExtremely hot.10 mph27%29.89 "HgN/A
2:00 PM94 °FScattered clouds.16 mph31%29.94 "Hg19 mi
1:00 PM92 °FHot.3 mph32%29.94 "HgN/A
12:00 PM90 °FHot.1 mph31%29.98 "HgN/A
11:00 AM86 °FSunny.3 mph38%30.01 "Hg19 mi
10:00 AM80 °FWarm.5 mph46%30.06 "HgN/A
9:00 AM78 °FWarm.7 mph51%30.09 "HgN/A
8:00 AM74 °FSunny.5 mph55%30.10 "Hg19 mi
7:00 AM70 °FMild.2 mph69%30.12 "HgN/A
6:00 AM69 °FMild.1 mph69%30.12 "HgN/A
5:00 AM70 °FClear.1 mph69%30.11 "Hg19 mi
4:00 AM71 °FMild.1 mph68%30.11 "HgN/A
3:00 AM73 °FMild.1 mph64%30.10 "HgN/A
2:00 AM74 °FClear.1 mph64%30.11 "Hg19 mi
1:00 AM76 °FMild.No wind62%30.10 "HgN/A
12:00 AM77 °FMild.5 mph56%30.08 "HgN/A
11:00 PM
Sat, Jul 4
79 °FClear.2 mph53%30.07 "Hg19 mi
10:00 PM85 °FWarm.2 mph42%30.04 "HgN/A
9:00 PM90 °FHot.7 mph33%30.01 "HgN/A
8:00 PM92 °FPassing clouds.10 mph30%29.99 "Hg19 mi
Weather by CustomWeather, © 2015

See weather overviewHow to use our weather pages